Home > Weather > Fullerton > Past weeks

Flag for U.S.A. Weather for the Past 2 Weeks in Fullerton, California, U.S.A.

Now
67 °F

Clear.


Feels Like: 67 °F
Forecast: 54 / 87 °F
Wind: 3 mph from South

Location: Fullerton Municipal Airport

Current Time: Feb 9, 2016 at 11:47:55 PM

Latest Report: Feb 9, 2016 at 10:53 PM


Visibility: 10 mi

Pressure: 30.09 "Hg

Humidity: 27%

Dew point: 32 °F

Location of FullertonLocation

Historic Weather in Fullerton — Graph

°F

Fullerton Temperature Yesterday

Maximum temperature yesterday: 88 °F (at 1:53 PM)
Minimum temperature yesterday: 55 °F (at 3:53 AM)
Average temperature yesterday: 73 °F

High & Low Weather Summary for the Past Weeks

 TemperatureHumidityPressure
High92 °F (Feb 9, 1:53 PM)90% (Jan 31, 1:02 AM)30.35 "Hg (Jan 31, 1:02 AM)
Low36 °F (Feb 2, 5:53 AM)8% (Feb 7, 2:53 PM)29.61 "Hg (Jan 31, 2:00 PM)
Average61 °F43%30.12 "Hg
* Reported Jan 25 10:53 PM — Feb 9 10:53 PM, Fullerton, Weather by CustomWeather, © 2016

Note: Actual official high and low records may vary slightly from our data, if they occured in-between our weather recording intervals... More about our weather records

Advertising

Fullerton Weather History for the Previous 24 Hours

 ConditionsComfort  
Time TempWeatherWind HumidityBarometerVisibility
10:53 PM
Tue, Feb 9
67 °FClear.3 mph27%30.09 "Hg10 mi
9:53 PM67 °FClear.No wind31%30.09 "Hg10 mi
8:53 PM70 °FClear.No wind25%30.09 "Hg10 mi
7:53 PM71 °FClear.6 mph29%30.07 "Hg10 mi
6:53 PM75 °FClear.No wind22%30.05 "Hg10 mi
5:53 PM81 °FClear.3 mph16%30.05 "Hg10 mi
4:53 PM90 °FSunny.No wind9%30.05 "Hg10 mi
3:53 PM92 °FSunny.5 mph8%30.03 "Hg10 mi
2:53 PM92 °FSunny.N/A8%30.03 "Hg10 mi
1:53 PM92 °FSunny.3 mph9%30.04 "Hg10 mi
12:53 PM91 °FSunny.6 mph10%30.06 "Hg10 mi
11:53 AM90 °FSunny.7 mph9%30.10 "Hg10 mi
10:53 AM87 °FSunny.5 mph10%30.13 "Hg10 mi
9:53 AM83 °FSunny.No wind17%30.14 "Hg10 mi
8:53 AM75 °FSunny.3 mph21%30.14 "Hg10 mi
7:53 AM65 °FSunny.3 mph29%30.13 "Hg10 mi
6:53 AM55 °FSunny.5 mph44%30.12 "Hg10 mi
5:53 AM57 °FClear.No wind39%30.11 "Hg10 mi
4:53 AM66 °FClear.7 mph24%30.09 "Hg10 mi
3:53 AM56 °FClear.3 mph42%30.09 "Hg10 mi
2:53 AM58 °FClear.No wind36%30.10 "Hg10 mi
1:53 AM58 °FClear.3 mph36%30.10 "Hg10 mi
12:53 AM60 °FClear.No wind33%30.11 "Hg10 mi
11:53 PM
Mon, Feb 8
68 °FClear.No wind19%30.11 "Hg10 mi
Weather by CustomWeather, © 2016

See weather overviewHow to use our weather pages